Weather History for KLYH - September, 2013

Change the Weather History Date:

Saturday, September 21, 2013

  Actual Average Record
Temperature  
Mean Temperature 63 °F 65 °F  
Max Temperature 69 °F 76 °F 98 °F (1895)
Min Temperature 56 °F 54 °F 37 °F (1956)
Degree Days  
Heating Degree Days 2 3  
Month to date heating degree days 20 21  
Since 1 July heating degree days 25 24  
Cooling Degree Days 0 3  
Month to date cooling degree days 120 101  
Year to date cooling degree days 1149 999  
Growing Degree Days 13 (Base 50)    
Moisture  
Dew Point 64 °F    
Average Humidity 92    
Maximum Humidity 100    
Minimum Humidity 84    
Precipitation  
Precipitation 0.45 in 0.12 in 3.60 in (1979)
Month to date precipitation 0.48 2.78  
Year to date precipitation 34.20 30.71  
Snow  
Snow 0.00 in - - ()
Month to date snowfall 0.0  
Since 1 July snowfall 0.0  
Since 1 September snowfall 0.0  
Snow Depth 0.00 in    
Sea Level Pressure  
Sea Level Pressure 29.87 in    
Wind  
Wind Speed 6 mph (South)    
Max Wind Speed 20 mph    
Max Gust Speed 24 mph    
Visibility 3 miles    
Events Fog , Rain    
T = Trace of Precipitation, MM = Missing Value Source: NWS Daily Summary

Daily Weather History Graph

Daily Weather History Graph

Search for Another Location

Airport or City:

Trip Planner

Search our weather history database for the weather conditions in past years. The results will help you decide how hot, cold, wet, or windy it might be!

Date:

Astronomy

Sep. 21, 2013 Rise Set
Actual Time 7:04 AM EDT 7:14 PM EDT
Civil Twilight 6:37 AM EDT 7:40 PM EDT
Nautical Twilight 6:07 AM EDT 8:11 PM EDT
Astronomical Twilight 5:36 AM EDT 8:42 PM EDT
Moon 8:28 PM EDT (9/21) 9:16 AM EDT (9/21)
Length of Visible Light 13h 02m
Length of Day
12h 10m
Waning Gibbous, 94% of the Moon is Illuminated
Sep 21
Waning Gibbous
Sep 26
Last Quarter
Oct 4
New
Oct 11
First Quarter
Oct 18
Full

Hourly Weather History & Observations

Time (EDT) Temp. Dew Point Humidity Pressure Visibility Wind Dir Wind Speed Gust Speed Precip Events Conditions
12:02 AM 64.4 °F 62.6 °F 94% 30.01 in 0.2 mi Calm Calm - N/A Fog Fog
12:08 AM 64.4 °F 64.4 °F 100% 30.00 in 0.5 mi Calm Calm - N/A Fog Fog
12:15 AM 64.4 °F 64.4 °F 100% 30.00 in 0.5 mi Calm Calm - N/A Fog Fog
12:28 AM 64.4 °F 64.4 °F 100% 30.00 in 0.5 mi Calm Calm - N/A Fog Fog
12:37 AM 64.4 °F 64.4 °F 100% 30.00 in 1.5 mi Calm Calm - N/A   Overcast
12:46 AM 64.4 °F 64.4 °F 100% 30.00 in 1.8 mi Calm Calm - N/A   Overcast
12:51 AM 64.4 °F 64.4 °F 100% 29.99 in 1.5 mi Calm Calm - N/A   Overcast
12:54 AM 64.0 °F 63.0 °F 96% 29.97 in 1.0 mi Calm Calm - N/A   Overcast
12:56 AM 64.4 °F 62.6 °F 94% 29.99 in 0.8 mi Calm Calm - N/A   Overcast
1:07 AM 64.4 °F 62.6 °F 94% 29.99 in 0.5 mi Calm Calm - N/A Fog Fog
1:11 AM 64.4 °F 62.6 °F 94% 29.99 in 0.2 mi Calm Calm - N/A Fog Fog
1:26 AM 64.4 °F 62.6 °F 94% 29.99 in 0.2 mi Calm Calm - N/A Fog Fog
1:43 AM 64.4 °F 62.6 °F 94% 30.00 in 0.5 mi Calm Calm - N/A Fog Fog
1:52 AM 64.4 °F 64.4 °F 100% 29.99 in 1.5 mi SW 3.5 mph - N/A   Overcast
1:54 AM 64.0 °F 64.0 °F 100% 29.97 in 2.5 mi SSW 3.5 mph - N/A   Overcast
2:18 AM 64.4 °F 64.4 °F 100% 29.98 in 3.0 mi South 3.5 mph - N/A   Overcast
2:32 AM 64.4 °F 64.4 °F 100% 29.98 in 3.0 mi South 4.6 mph - N/A   Overcast
2:54 AM 64.0 °F 64.0 °F 100% 29.95 in 3.0 mi South 3.5 mph - N/A   Overcast
3:54 AM 64.9 °F 64.0 °F 97% 29.94 in 4.0 mi SSE 4.6 mph - 0.00 in   Overcast
4:01 AM 64.4 °F 64.4 °F 100% 29.95 in 4.0 mi South 4.6 mph - N/A   Overcast
4:54 AM 64.9 °F 64.0 °F 97% 29.92 in 3.0 mi SSE 4.6 mph - 0.01 in Rain Light Rain
5:03 AM 64.4 °F 64.4 °F 100% 29.94 in 4.0 mi South 4.6 mph - 0.00 in Rain Light Rain
5:15 AM 64.4 °F 64.4 °F 100% 29.94 in 5.0 mi South 5.8 mph - 0.00 in   Overcast
5:29 AM 64.4 °F 64.4 °F 100% 29.93 in 4.0 mi South 3.5 mph - 0.00 in   Overcast
5:54 AM 64.9 °F 64.0 °F 97% 29.90 in 4.0 mi SSE 3.5 mph - 0.00 in   Overcast
6:16 AM 64.4 °F 64.4 °F 100% 29.92 in 2.5 mi SSE 3.5 mph - N/A   Overcast
6:33 AM 64.4 °F 64.4 °F 100% 29.92 in 3.0 mi South 5.8 mph - N/A   Overcast
6:54 AM 64.0 °F 63.0 °F 96% 29.89 in 2.5 mi SSE 5.8 mph - N/A   Overcast
7:01 AM 64.4 °F 62.6 °F 94% 29.91 in 1.5 mi South 6.9 mph - N/A   Overcast
7:54 AM 64.0 °F 63.0 °F 96% 29.89 in 0.8 mi South 8.1 mph - N/A   Overcast
8:01 AM 64.4 °F 62.6 °F 94% 29.91 in 1.0 mi South 6.9 mph - N/A   Overcast
8:54 AM 64.0 °F 64.0 °F 100% 29.88 in 1.0 mi South 9.2 mph - N/A   Overcast
9:06 AM 64.4 °F 64.4 °F 100% 29.90 in 0.8 mi South 8.1 mph - N/A   Overcast
9:54 AM 64.9 °F 64.0 °F 97% 29.88 in 0.8 mi South 10.4 mph - N/A   Overcast
10:05 AM 64.4 °F 64.4 °F 100% 29.90 in 1.5 mi South 10.4 mph - N/A   Overcast
10:54 AM 66.0 °F 64.0 °F 93% 29.87 in 1.5 mi South 11.5 mph - N/A   Overcast
11:40 AM 66.2 °F 64.4 °F 94% 29.87 in 6.0 mi South 8.1 mph - N/A   Overcast
11:54 AM 68.0 °F 64.9 °F 90% 29.84 in 6.0 mi South 11.5 mph - N/A   Overcast
12:54 PM 69.1 °F 64.9 °F 87% 29.82 in 10.0 mi South 10.4 mph - N/A   Overcast
1:20 PM 69.8 °F 64.4 °F 83% 29.82 in 10.0 mi South 10.4 mph - N/A   Overcast
1:54 PM 69.1 °F 64.9 °F 87% 29.79 in 10.0 mi South 10.4 mph - N/A   Overcast
2:54 PM 69.1 °F 66.9 °F 93% 29.78 in 5.0 mi South 8.1 mph - 0.00 in Rain Light Rain
3:54 PM 69.1 °F 66.9 °F 93% 29.75 in 4.0 mi South 8.1 mph - 0.03 in Rain Light Rain
4:54 PM 69.1 °F 68.0 °F 96% 29.72 in 3.0 mi South 10.4 mph - 0.08 in Rain Light Rain
5:31 PM 69.8 °F 66.2 °F 88% 29.75 in 4.0 mi SSW 16.1 mph 21.9 mph 0.05 in Rain Light Rain
5:54 PM 69.1 °F 66.9 °F 93% 29.73 in 4.0 mi SSW 11.5 mph - 0.08 in Rain Light Rain
6:54 PM 66.9 °F 64.9 °F 93% 29.71 in 2.5 mi NNW 3.5 mph - 0.08 in Rain Rain
6:56 PM 66.2 °F 64.4 °F 94% 29.73 in 1.5 mi Calm Calm - 0.00 in Rain Rain
7:03 PM 66.2 °F 64.4 °F 94% 29.74 in 1.0 mi West 8.1 mph - 0.10 in Rain Rain
7:07 PM 66.2 °F 64.4 °F 94% 29.74 in 2.0 mi West 4.6 mph - 0.10 in Rain Light Rain
7:10 PM 66.2 °F 66.2 °F 100% 29.75 in 5.0 mi West 4.6 mph - 0.11 in Rain Light Rain
7:36 PM 66.2 °F 64.4 °F 94% 29.76 in 7.0 mi SW 5.8 mph - 0.13 in Rain Rain
7:54 PM 64.9 °F 64.0 °F 97% 29.75 in 7.0 mi SW 4.6 mph - 0.15 in Rain Light Rain
8:54 PM 63.0 °F 62.1 °F 97% 29.76 in 10.0 mi Variable 3.5 mph - 0.02 in Rain Light Rain
9:54 PM 62.1 °F 61.0 °F 96% 29.76 in 10.0 mi Calm Calm - 0.00 in   Partly Cloudy
10:54 PM 61.0 °F 60.1 °F 97% 29.78 in 10.0 mi Calm Calm - N/A   Clear
11:43 PM 59.0 °F 57.2 °F 94% 29.79 in 1.8 mi Calm Calm - N/A   Clear
11:46 PM 59.0 °F 57.2 °F 94% 29.79 in 1.0 mi Calm Calm - N/A   Mist
11:52 PM 57.2 °F 57.2 °F 100% 29.79 in 0.5 mi Calm Calm - N/A Fog Fog
11:54 PM 57.9 °F 57.9 °F 100% 29.77 in 0.5 mi Calm Calm - N/A Fog Fog